SPACEMOBILE-SSR02 DEB, 62370

Orbit data source: Space-Track

SPACEMOBILE-SSR02 DEB, 62370 is space debris in LEO originally from a launch on Thu, 12 Sep 2024 UTC launched from the Air Force Eastern Test Range (AFETR). Debris objects in space refer to the collection of defunct objects orbiting the Earth. Examples of debris include non-operational satellites, rocket bodies, and fragments generated from explosions, collisions, or faulty payload assembly.

Loading next visibility...
Identifier
62370, 2024-163G
Orbit
LEO
Country
Flag of USUS
Related business
Manufacturer
AST & Science
Mission
Spacecraft
Bus & Motor
BW3 LVA, Unknown motor
Mass
150 kg wet, 150 kg dry
Launch date (UTC)
2024-09-12 (1 year ago)
Launch vehicle
Unknown
Launch site
Air Force Eastern Test Range (AFETR)
Object type
Payload
Rocket body
Debris
Shape & HBR
Cyl, 3.8 m
Radar Cross Section
1.963 m², Large (>1 m²)

Expand to show TLE details & history
Last TLE update: 13 hours ago

TLE from 13 hours ago
0 SPACEMOBILE-SSR02 DEB
1 62370U 24163G   26035.66760186  .00026529  00000-0  72930-3 0  9998
2 62370  52.9441 173.0436 0008171 121.5442 238.6358 15.37014893 77948
Epoch: 2026-02-04T16:01Z
TLE epoch observation values (Epoch: 2026-02-04T16:01:20.800Z)
Latitude
-0.00002°
Longitude
157.87603°
Altitude
458.731 km
Speed
7.637 km/s
True Right ascension
11h 32m 10s
True Declination
0° 00' 00"
Sunlit
Object was in full shadow at epoch
Visualization orbit readout
Latitude
Unknown
Longitude
Unknown
Altitude
Unknown
Speed
Unknown
Apparent Right ascension
Unknown
Apparent Declination
Unknown
Sunlit
N/A
Visualization observer readout
Local Sidereal Time
06:43:11
Azimuth
Unknown
Elevation
Unknown
Doppler factor
Unknown
Orbital elements
Apogee altitude
460.818 km
Perigee altitude
449.651 km
Semi-major axis
6,833.371 km
Eccentricity
0.00082
Inclination
52.9441°
RAAN
173.0436°
Arg. of periapsis
121.5442°
True anomaly
238.55589°
Mean anomaly
238.6358°
Eccentric anomaly
238.59584°
Mean motion
3.84229 °/min
Orbital period
93.69 mins
BSTAR
0.0007293
Loading maneuver chart data...
Computing Atmospheric mass density...
Loading historical data...
Loading historical data...
Loading historical data...
Loading historical data...
Loading historical data...
Loading historical data...
Loading historical data...

Documentation

Showing up to 5 results
|